Hourly Data Report for December 02, 2003

SHERBROOKE A
QUEBEC

45°26'00.000" N
71°41'00.000" W
241.40 m
7028124
71610
YSC

Download Data

Hourly Data (December 2003)
Hourly Data Report for December 2, 2003
TIME
LST
Temp Definition
°C
Dew Point Definition
°C
Rel Hum Definition
%
Precip. Amount Definition
mm

Wind Dir Definition
10's deg

Wind Spd Definition
km/h
Visibility Definition
km
Stn Press Definition
kPa
Hmdx Definition


Wind Chill Definition


Weather Definition


00:00 -7.8 -11.5 75   30 19 11.3 98.08   -15 Snow
01:00 -9.1 -12.2 78   29 9 12.9 98.08   -14 Snow
02:00 -11.4 -13.8 82   26 4 15.0 98.15   -14  
03:00 -9.2 -12.1 79   27 9 15.0 98.23   -14  
04:00 -9.2 -12.1 79   31 7 5.6 98.28   -13 Snow
05:00 -10.3 -13.0 81   31 6 15.0 98.31   -14  
06:00 -11.0 -14.4 76   31 4 15.0 98.39   -13  
07:00 -10.5 -13.7 77   31 6 9.7 98.47   -14 Snow
08:00 -11.6 -14.4 80   29 7 19.3 98.52   -16 Mainly Clear
09:00 -10.1 -14.6 70   32 11 4.0 98.58   -16 Snow Showers
10:00 -10.1 -13.9 74   31 17 1.2 98.64   -17 Snow Showers
11:00 -10.5 -13.3 80   30 20 4.8 98.65   -18 Snow Showers
12:00 -10.5 -15.2 68   32 20 12.9 98.68   -18 Snow Showers
13:00 -10.3 -16.5 60   28 32 12.9 98.70   -20 Mostly Cloudy
14:00 -11.6 -16.7 66   30 20 16.1 98.82   -20 Snow Showers
15:00 -11.8 -17.7 62   29 30 19.3 98.93   -22 Snow Showers
16:00 -12.0 -18.6 58   29 24 19.3 99.04   -21 Mostly Cloudy
17:00 -12.2 -18.3 60   29 20 24.1 99.12   -21 Mainly Clear
18:00 -12.6 -18.0 64   28 22 15.0 99.17   -22  
19:00 -12.6 -17.7 66   27 17 15.0 99.25   -20  
20:00 -13.0 -16.8 73   28 20 8.0 99.32   -22 Snow
21:00 -13.5 -17.9 69   27 15 15.0 99.39   -21  
22:00 -14.1 -18.0 72   25 11 15.0 99.41   -21  
23:00 -14.1 -18.1 72   25 11 15.0 99.45   -21  

Notes on Data Quality.

Legend

  • E = Estimated
  • M = Missing
  • NA = Not Available*
  • [empty] = Indicates an unobserved value
Date modified: